�N����,����,�~����,�C��,���x,�C��,����,���ϕ���,�ő�u�ԕ���,�ő厞����,���˗�,�I�_���x,�n�����x,�ő啗���N��,DTYPE
"22/09/10","00:10",0.0,24.6,87.1,1009.5,311.5,2.0,3.6,330.8,0.00,22.4,25.6,"00:01:52",1
"22/09/10","00:20",0.0,24.6,87.1,1009.0,303.4,1.6,2.9,330.1,0.00,22.4,25.6,"00:11:28",1
"22/09/10","00:30",0.0,24.4,86.9,1009.5,307.9,1.6,3.3,339.2,0.00,22.1,25.7,"00:28:48",1
"22/09/10","00:40",0.0,24.5,86.6,1009.7,327.9,1.5,3.5,349.2,0.00,22.2,25.9,"00:35:28",1
"22/09/10","00:50",0.0,24.5,86.1,1009.5,336.7,2.2,4.7,342.6,0.00,22.1,25.7,"00:42:56",1
"22/09/10","01:00",0.0,24.6,85.8,1009.0,301.2,1.1,2.8,325.4,0.00,22.1,25.7,"00:51:36",1
"22/09/10","01:10",0.0,24.4,86.1,1008.8,293.4,0.8,2.8,357.3,0.00,22.0,25.5,"01:06:40",1
"22/09/10","01:20",0.0,24.2,86.6,1009.3,280.4,0.8,1.9,247.5,0.00,21.9,25.7,"01:18:48",1
"22/09/10","01:30",0.0,24.0,87.1,1009.0,279.3,1.0,1.4,248.2,0.00,21.8,25.5,"01:24:00",1
"22/09/10","01:40",0.0,23.9,87.7,1009.0,294.5,0.8,1.6,279.6,0.00,21.8,25.7,"01:34:56",1
"22/09/10","01:50",0.0,23.8,88.1,1009.0,274.6,0.8,1.7,328.8,0.00,21.8,25.5,"01:41:20",1
"22/09/10","02:00",0.0,23.8,88.5,1009.3,256.0,1.2,2.4,248.9,0.00,21.8,25.7,"01:56:48",1
"22/09/10","02:10",0.2,23.6,88.9,1009.3,291.5,1.0,1.9,311.8,0.00,21.7,25.5,"02:04:56",1
"22/09/10","02:20",0.0,23.5,89.2,1009.3,300.0,1.0,1.6,323.8,0.00,21.7,25.5,"02:19:20",1
"22/09/10","02:30",0.0,23.4,89.6,1009.3,281.0,1.0,1.8,310.1,0.00,21.6,25.4,"02:22:08",1
"22/09/10","02:40",0.0,23.3,89.7,1009.3,273.8,0.7,1.3,308.6,0.00,21.6,25.4,"02:37:52",1
"22/09/10","02:50",0.0,23.3,90.1,1008.8,270.4,1.1,2.2,253.4,0.00,21.6,25.4,"02:46:08",1
"22/09/10","03:00",0.0,23.2,90.3,1009.5,286.9,1.0,1.7,314.5,0.00,21.6,25.5,"02:58:56",1
"22/09/10","03:10",0.0,23.2,90.6,1009.3,298.2,1.1,1.6,306.0,0.00,21.6,25.3,"03:02:56",1
"22/09/10","03:20",0.0,23.2,90.8,1009.5,300.6,1.2,2.2,328.7,0.00,21.7,25.3,"03:17:12",1
"22/09/10","03:30",0.0,23.3,90.9,1009.0,307.7,1.5,2.5,314.8,0.00,21.8,25.3,"03:22:40",1
"22/09/10","03:40",0.0,23.3,90.9,1009.5,308.7,1.5,2.7,296.9,0.00,21.8,25.3,"03:39:12",1
"22/09/10","03:50",0.0,23.2,91.0,1009.3,321.1,1.6,3.1,324.4,0.00,21.7,25.2,"03:44:16",1
"22/09/10","04:00",0.0,23.2,91.1,1009.0,322.9,1.5,2.6,332.6,0.00,21.7,25.3,"03:56:24",1
"22/09/10","04:10",0.0,23.1,91.2,1009.5,325.0,1.6,2.7,340.4,0.00,21.6,25.3,"04:07:36",1
"22/09/10","04:20",0.0,23.0,91.2,1009.5,311.8,1.1,1.4,313.8,0.00,21.5,25.2,"04:16:32",1
"22/09/10","04:30",0.0,22.8,91.5,1009.3,304.5,1.0,1.6,331.3,0.00,21.4,25.2,"04:20:02",1
"22/09/10","04:40",0.0,22.7,91.6,1009.5,299.6,1.2,1.7,321.8,0.00,21.3,25.1,"04:38:24",1
"22/09/10","04:50",0.0,22.7,91.8,1009.3,297.9,1.1,1.8,334.7,0.00,21.3,25.3,"04:48:40",1
"22/09/10","05:00",0.0,22.7,92.0,1009.3,302.6,1.3,2.4,321.6,0.00,21.4,25.2,"04:59:12",1
"22/09/10","05:10",0.0,22.8,92.1,1009.3,305.7,1.6,2.8,316.3,0.00,21.5,25.2,"05:05:20",1
"22/09/10","05:20",0.0,22.8,92.2,1009.5,302.3,1.6,2.7,345.7,0.00,21.5,25.2,"05:18:48",1
"22/09/10","05:30",0.0,22.8,92.2,1009.5,302.9,1.6,2.8,338.2,0.00,21.5,25.3,"05:28:16",1
"22/09/10","05:40",0.0,22.8,92.3,1009.3,311.0,1.8,2.7,314.8,0.00,21.5,24.9,"05:34:00",1
"22/09/10","05:50",0.0,22.8,92.3,1009.0,318.7,1.5,3.5,341.7,0.00,21.5,25.1,"05:42:08",1
"22/09/10","06:00",0.0,22.8,92.3,1009.3,278.6,1.2,2.1,292.6,0.00,21.5,25.2,"05:58:56",1
"22/09/10","06:10",0.0,22.9,92.4,1009.3,265.5,1.3,2.5,263.9,0.00,21.6,25.1,"06:00:24",1
"22/09/10","06:20",0.0,23.0,92.3,1008.8,262.4,1.5,2.2,240.8,0.00,21.7,24.9,"06:13:12",1
"22/09/10","06:30",0.0,23.1,92.3,1009.3,276.2,1.1,1.8,250.9,0.00,21.8,24.7,"06:26:08",1
"22/09/10","06:40",0.0,23.0,92.3,1009.5,308.4,1.3,3.3,354.8,0.00,21.7,24.9,"06:37:44",1
"22/09/10","06:50",0.0,23.3,92.2,1009.3,326.2,2.1,3.7,348.5,0.00,22.0,24.9,"06:42:56",1
"22/09/10","07:00",0.0,23.4,91.9,1009.5,323.9,2.0,4.7,327.3,0.01,22.0,25.0,"06:54:16",1
"22/09/10","07:10",0.0,23.6,91.7,1009.5,288.1,1.3,2.1,256.6,0.02,22.2,25.1,"07:04:16",1
"22/09/10","07:20",0.0,23.8,91.5,1009.5,327.6,1.5,2.7,346.0,0.03,22.4,24.9,"07:17:12",1
"22/09/10","07:30",0.0,24.4,90.8,1009.3,325.9,1.6,2.7,347.6,0.07,22.8,24.9,"07:22:56",1
"22/09/10","07:40",0.0,24.8,89.6,1009.3,304.4,1.6,2.9,330.6,0.08,23.0,24.9,"07:31:28",1
"22/09/10","07:50",0.0,25.1,88.8,1009.3,281.6,1.1,3.2,333.5,0.07,23.2,24.9,"07:40:08",1
"22/09/10","08:00",0.0,25.7,87.6,1009.5,274.7,0.8,2.4,230.9,0.12,23.5,24.9,"07:51:28",1
"22/09/10","08:10",0.0,26.2,85.4,1009.3,286.1,0.7,1.8,312.0,0.14,23.6,24.8,"08:08:40",1
"22/09/10","08:20",0.0,26.8,83.4,1009.5,283.5,0.7,2.1,309.6,0.17,23.8,24.8,"08:10:02",1
"22/09/10","08:30",0.0,27.4,80.8,1009.0,350.0,1.3,3.6,47.3,0.20,23.8,24.8,"08:24:00",1
"22/09/10","08:40",0.0,27.9,78.0,1009.3,14.4,1.5,3.3,13.4,0.22,23.7,24.9,"08:33:20",1
"22/09/10","08:50",0.0,28.4,76.3,1008.6,19.8,1.3,3.7,331.1,0.25,23.9,25.0,"08:47:44",1
"22/09/10","09:00",0.0,28.6,74.8,1008.8,23.5,1.2,3.6,2.2,0.23,23.7,25.0,"08:54:00",1
"22/09/10","09:10",0.0,28.9,72.9,1009.0,28.5,1.2,2.6,28.3,0.28,23.6,24.9,"09:05:44",1
"22/09/10","09:20",0.0,29.6,72.8,1009.0,13.3,1.1,3.5,357.8,0.36,24.2,24.9,"09:11:12",1
"22/09/10","09:30",0.0,28.9,72.3,1009.0,354.4,1.3,2.9,335.0,0.23,23.5,25.1,"09:27:04",1
"22/09/10","09:40",0.0,28.3,73.6,1009.3,353.9,1.7,3.1,352.3,0.17,23.2,25.2,"09:36:00",1
"22/09/10","09:50",0.0,28.1,75.0,1008.6,344.0,1.5,2.9,329.6,0.19,23.3,25.2,"09:49:52",1
"22/09/10","10:00",0.0,28.2,75.7,1008.6,345.5,1.6,3.5,354.5,0.20,23.5,25.2,"09:54:48",1
"22/09/10","10:10",0.0,28.6,75.7,1008.6,350.0,1.2,3.4,350.1,0.21,23.9,25.3,"10:02:00",1
"22/09/10","10:20",0.0,28.7,74.3,1008.8,339.7,1.1,2.2,357.8,0.21,23.7,25.3,"10:18:40",1
"22/09/10","10:30",0.0,29.3,73.2,1008.8,349.7,0.8,2.2,28.4,0.22,24.0,25.2,"10:21:28",1
"22/09/10","10:40",0.0,29.5,71.8,1009.0,11.1,1.0,3.1,353.5,0.20,23.9,25.4,"10:36:56",1
"22/09/10","10:50",0.0,29.5,71.8,1009.0,321.8,0.6,1.3,335.0,0.13,23.9,25.5,"10:49:44",1
"22/09/10","11:00",0.0,29.2,72.4,1008.8,317.7,1.0,2.5,336.9,0.14,23.8,25.6,"10:54:32",1
"22/09/10","11:10",0.0,29.1,73.3,1008.8,285.4,0.6,1.7,346.4,0.11,23.9,25.6,"11:06:16",1
"22/09/10","11:20",0.0,29.1,74.0,1009.0,280.1,0.5,1.4,332.8,0.12,24.0,25.7,"11:12:08",1
"22/09/10","11:30",0.0,29.6,74.1,1008.8,264.8,0.7,2.4,223.2,0.20,24.5,25.6,"11:27:52",1
"22/09/10","11:40",0.0,29.5,73.7,1008.6,248.3,1.6,3.7,229.1,0.25,24.3,25.7,"11:39:28",1
"22/09/10","11:50",0.0,29.6,73.6,1009.0,238.0,1.2,3.1,232.8,0.26,24.4,25.6,"11:43:28",1
"22/09/10","12:00",0.0,30.0,72.2,1009.3,227.8,0.7,1.7,222.1,0.22,24.5,25.9,"11:51:52",1
"22/09/10","12:10",0.0,30.3,70.9,1009.0,164.8,0.7,1.9,212.8,0.23,24.5,25.9,"12:05:20",1
"22/09/10","12:20",0.0,30.6,70.1,1009.0,292.6,0.6,1.6,350.1,0.25,24.6,25.8,"12:14:00",1
"22/09/10","12:30",0.0,30.0,70.8,1009.0,244.9,1.1,3.5,214.0,0.18,24.2,25.8,"12:27:44",1
"22/09/10","12:40",0.0,30.2,71.6,1009.3,258.5,1.0,2.2,246.0,0.27,24.5,26.0,"12:30:08",1
"22/09/10","12:50",0.0,30.0,71.5,1009.3,315.1,1.6,3.5,357.5,0.28,24.3,26.2,"12:44:40",1
"22/09/10","13:00",0.0,29.8,72.4,1008.3,313.6,1.1,2.5,335.4,0.19,24.3,26.1,"12:54:56",1
"22/09/10","13:10",0.0,30.4,72.0,1008.6,313.9,1.2,3.4,350.1,0.40,24.8,26.3,"13:00:02",1
"22/09/10","13:20",0.0,31.2,69.0,1009.0,333.9,1.5,2.9,302.7,0.60,24.9,26.2,"13:14:24",1
"22/09/10","13:30",0.0,32.2,65.9,1009.3,334.9,1.0,2.2,346.3,0.63,25.1,26.4,"13:20:40",1
"22/09/10","13:40",0.0,32.5,63.7,1009.5,256.2,1.2,3.2,318.8,0.47,24.8,26.5,"13:39:36",1
"22/09/10","13:50",0.0,31.6,66.4,1009.3,309.6,1.1,3.9,354.9,0.28,24.6,26.2,"13:48:00",1
"22/09/10","14:00",0.0,30.9,68.3,1008.6,334.9,1.5,4.5,346.3,0.27,24.4,26.5,"13:54:24",1
"22/09/10","14:10",0.0,30.8,69.4,1008.3,265.8,1.5,3.7,238.0,0.33,24.6,26.6,"14:08:24",1
"22/09/10","14:20",0.0,31.6,68.7,1008.6,277.8,1.1,2.6,336.2,0.47,25.2,26.7,"14:14:00",1
"22/09/10","14:30",0.0,32.7,65.7,1009.0,241.0,1.1,2.5,212.0,0.52,25.5,26.8,"14:26:56",1
"22/09/10","14:40",0.0,32.8,64.6,1009.3,326.2,1.2,2.9,335.2,0.56,25.3,27.0,"14:36:08",1
"22/09/10","14:50",0.0,32.9,62.5,1009.0,312.1,1.5,3.1,336.6,0.51,24.8,27.0,"14:46:00",1
"22/09/10","15:00",0.0,32.6,63.3,1008.6,313.6,1.1,3.9,34.0,0.29,24.8,27.0,"14:54:08",1
"22/09/10","15:10",0.0,31.6,65.9,1008.6,306.6,1.5,4.3,352.3,0.24,24.5,27.2,"15:04:32",1
"22/09/10","15:20",0.0,30.9,68.3,1007.8,312.0,1.7,4.2,338.3,0.19,24.4,27.3,"15:13:12",1
"22/09/10","15:30",0.0,31.0,68.7,1007.6,305.1,1.5,3.6,326.6,0.25,24.6,27.3,"15:27:52",1
"22/09/10","15:40",0.0,31.2,68.9,1007.4,306.0,1.6,4.0,348.3,0.21,24.8,27.5,"15:37:28",1
"22/09/10","15:50",0.0,30.8,69.5,1007.1,313.9,1.8,3.9,349.9,0.21,24.6,27.6,"15:47:04",1
"22/09/10","16:00",0.0,30.7,70.6,1007.4,320.8,1.7,4.2,345.2,0.21,24.8,27.4,"15:52:08",1
"22/09/10","16:10",0.0,31.4,69.4,1007.1,332.3,1.6,4.0,332.6,0.30,25.2,27.4,"16:06:48",1
"22/09/10","16:20",0.0,31.5,67.6,1007.1,344.9,1.8,4.0,344.8,0.22,24.8,27.5,"16:19:44",1
"22/09/10","16:30",0.0,31.5,68.9,1007.1,342.6,1.8,3.5,356.3,0.22,25.1,27.5,"16:24:00",1
"22/09/10","16:40",0.0,31.2,68.6,1007.1,345.1,1.6,3.9,339.9,0.14,24.8,27.5,"16:30:24",1
"22/09/10","16:50",0.0,31.7,68.2,1007.1,322.2,1.1,2.2,340.0,0.18,25.2,27.8,"16:40:32",1
"22/09/10","17:00",0.0,31.6,67.7,1007.4,330.2,1.7,4.8,349.0,0.17,24.9,27.7,"16:59:52",1
"22/09/10","17:10",0.0,31.3,68.1,1007.4,317.1,1.1,2.7,329.7,0.11,24.7,27.7,"17:04:08",1
"22/09/10","17:20",0.0,30.6,69.9,1007.1,331.4,1.7,4.5,320.9,0.10,24.5,27.8,"17:14:32",1
"22/09/10","17:30",0.0,29.9,71.2,1006.9,326.0,1.7,4.0,336.2,0.08,24.2,28.0,"17:25:20",1
"22/09/10","17:40",0.0,29.2,73.5,1006.4,316.8,1.3,3.6,345.1,0.05,24.0,27.6,"17:33:28",1
"22/09/10","17:50",0.0,29.1,74.9,1006.7,311.1,1.6,4.0,324.6,0.06,24.2,27.8,"17:41:44",1
"22/09/10","18:00",0.0,28.7,75.4,1006.4,319.0,1.8,3.7,315.4,0.03,24.0,27.7,"17:56:24",1
"22/09/10","18:10",0.0,28.2,76.8,1006.2,316.6,1.6,3.4,1.5,0.01,23.8,27.6,"18:00:08",1
"22/09/10","18:20",0.0,27.7,78.2,1006.2,277.6,1.5,2.5,252.0,0.00,23.6,27.6,"18:15:20",1
"22/09/10","18:30",0.0,27.3,79.4,1006.9,286.6,1.2,2.5,280.1,0.00,23.5,27.7,"18:20:40",1
"22/09/10","18:40",0.0,27.1,80.2,1006.9,286.2,1.1,2.1,242.5,0.00,23.4,27.7,"18:35:04",1
"22/09/10","18:50",0.0,26.9,80.6,1007.1,250.0,2.0,4.4,233.5,0.00,23.3,27.6,"18:45:28",1
"22/09/10","19:00",0.0,26.8,81.0,1007.1,298.8,1.5,2.7,315.4,0.00,23.3,27.3,"18:50:48",1
"22/09/10","19:10",0.0,26.7,81.3,1007.4,322.3,1.5,3.3,342.6,0.00,23.3,27.5,"19:05:16",1
"22/09/10","19:20",0.0,26.4,82.0,1007.4,324.2,1.6,4.2,346.2,0.00,23.1,27.4,"19:18:32",1
"22/09/10","19:30",0.0,26.2,82.6,1007.8,329.5,1.8,3.3,344.2,0.00,23.0,27.6,"19:22:24",1
"22/09/10","19:40",0.0,26.1,83.2,1007.8,330.2,2.0,3.9,341.7,0.00,23.1,27.5,"19:37:36",1
"22/09/10","19:50",0.0,25.9,83.9,1008.1,319.3,2.0,3.5,343.7,0.00,23.0,27.4,"19:41:52",1
"22/09/10","20:00",0.0,25.7,84.6,1008.1,305.3,1.3,3.4,325.5,0.00,22.9,27.4,"19:54:40",1
"22/09/10","20:10",0.0,25.6,85.2,1008.1,329.0,1.3,2.2,343.6,0.00,23.0,27.4,"20:04:32",1
"22/09/10","20:20",0.0,25.5,85.7,1008.3,283.6,1.0,2.4,245.5,0.00,23.0,27.5,"20:19:36",1
"22/09/10","20:30",0.0,25.4,86.2,1008.3,286.6,1.1,2.1,246.9,0.00,23.0,27.3,"20:24:32",1
"22/09/10","20:40",0.0,25.3,86.5,1008.3,317.0,1.5,3.4,327.8,0.00,22.9,27.5,"20:38:56",1
"22/09/10","20:50",0.0,25.2,86.8,1008.3,324.4,2.2,4.1,339.0,0.00,22.9,27.0,"20:45:04",1
"22/09/10","21:00",0.0,25.2,86.9,1008.6,322.2,1.6,3.2,312.6,0.00,22.9,27.1,"20:56:56",1
"22/09/10","21:10",0.0,25.1,87.0,1008.8,335.1,2.2,3.6,338.6,0.00,22.8,27.2,"21:02:24",1
"22/09/10","21:20",0.0,25.0,87.3,1009.3,334.0,1.8,2.8,353.8,0.00,22.8,27.2,"21:18:48",1
"22/09/10","21:30",0.0,24.9,87.5,1009.5,326.3,1.8,3.3,333.6,0.00,22.7,26.9,"21:27:28",1
"22/09/10","21:40",0.0,24.8,87.7,1009.0,329.7,1.5,2.5,332.7,0.00,22.7,26.9,"21:38:00",1
"22/09/10","21:50",0.0,24.7,87.9,1009.5,335.7,1.8,3.6,340.4,0.00,22.6,26.9,"21:48:32",1
"22/09/10","22:00",0.0,24.7,88.1,1009.5,335.0,1.5,2.9,354.8,0.00,22.6,26.9,"21:55:28",1
"22/09/10","22:10",0.0,24.5,88.4,1009.3,335.4,1.2,2.2,323.0,0.00,22.5,27.0,"22:07:44",1
"22/09/10","22:20",0.0,24.4,88.7,1009.5,322.0,1.7,3.4,335.3,0.00,22.5,26.7,"22:18:08",1
"22/09/10","22:30",0.0,24.4,88.9,1009.5,328.3,2.2,4.1,310.7,0.00,22.5,26.9,"22:20:32",1
"22/09/10","22:40",0.0,24.4,89.1,1009.5,330.3,1.8,2.9,340.6,0.00,22.5,26.9,"22:33:04",1
"22/09/10","22:50",0.0,24.3,89.4,1009.5,334.0,1.6,2.7,341.5,0.00,22.5,26.8,"22:42:08",1
"22/09/10","23:00",0.0,24.2,89.6,1009.5,329.9,1.8,3.3,343.8,0.00,22.4,26.8,"22:53:20",1
"22/09/10","23:10",0.0,24.2,89.7,1009.5,328.1,1.7,3.1,329.7,0.00,22.4,26.7,"23:05:28",1
"22/09/10","23:20",0.0,24.2,89.8,1009.3,324.6,1.8,4.0,343.0,0.00,22.5,26.8,"23:16:32",1
"22/09/10","23:30",0.0,24.1,89.9,1009.5,326.7,1.2,2.7,335.8,0.00,22.4,26.6,"23:20:40",1
"22/09/10","23:40",0.0,24.0,90.1,1009.3,324.5,1.2,2.2,334.9,0.00,22.3,26.5,"23:32:40",1
"22/09/10","23:50",0.0,23.9,90.4,1009.3,314.6,1.3,2.4,345.9,0.00,22.3,26.6,"23:43:20",1
"22/09/10","24:00",0.0,23.9,90.7,1009.7,298.4,1.2,2.1,337.1,0.00,22.3,26.4,"23:57:36",1
